SWR83B EDDL-LSZH

Flight info

Callsign SWR83B
Flight time 0h 53m
Altitude 31000
Route DODEN7Z/05R DODEN Y852 TUSUK DCT ULNOK L607 SUNEG T721 LAMGO/N0445F270 T721 RILAX
Aircraft A320/M-SDE3FGHIRWY/LB1

Departure

Time 2026-05-05 16:29
Airport Düsseldorf Airport (EDDL)

Arrival

Time 2026-05-05 17:22
Airport Zürich Airport (LSZH)
Time Latitude Longitude Altitude Speed Heading
2026-05-05 16:07 51.28059 6.76706 129 ft 0 kts 275°
2026-05-05 16:18 51.28057 6.76743 124 ft 4 kts 276°
2026-05-05 16:18 51.28045 6.76782 125 ft 2 kts 20°
2026-05-05 16:19 51.28036 6.76777 127 ft 0 kts 15°
2026-05-05 16:22 51.28038 6.76778 126 ft 1 kts 15°
2026-05-05 16:22 51.28117 6.76816 125 ft 8 kts 17°
2026-05-05 16:23 51.28264 6.76849 129 ft 11 kts 351°
2026-05-05 16:23 51.28309 6.76803 125 ft 13 kts 322°
2026-05-05 16:23 51.28393 6.76577 123 ft 13 kts 236°
2026-05-05 16:24 51.28301 6.76384 127 ft 17 kts 232°
2026-05-05 16:24 51.28235 6.76245 128 ft 14 kts 234°
2026-05-05 16:24 51.28148 6.76060 127 ft 11 kts 232°
2026-05-05 16:25 51.28094 6.75949 128 ft 19 kts 232°
2026-05-05 16:25 51.27916 6.75585 127 ft 21 kts 233°
2026-05-05 16:25 51.27844 6.75421 123 ft 11 kts 234°
2026-05-05 16:26 51.27879 6.75319 122 ft 0 kts 334°
2026-05-05 16:27 51.27880 6.75317 122 ft 2 kts 334°
2026-05-05 16:27 51.27938 6.75273 124 ft 10 kts 334°
2026-05-05 16:27 51.28003 6.75288 125 ft 10 kts 41°
2026-05-05 16:28 51.28022 6.75329 124 ft 0 kts 52°
2026-05-05 16:28 51.28123 6.75540 127 ft 60 kts 53°
2026-05-05 16:28 51.28512 6.76355 129 ft 122 kts 52°
2026-05-05 16:29 51.29127 6.77645 247 ft 159 kts 51°
2026-05-05 16:29 51.29790 6.79070 851 ft 161 kts 51°
2026-05-05 16:29 51.30463 6.80505 1493 ft 166 kts 52°
2026-05-05 16:29 51.31208 6.82065 1823 ft 188 kts 52°
2026-05-05 16:30 51.32046 6.83821 2106 ft 211 kts 53°
2026-05-05 16:30 51.32989 6.85802 2462 ft 236 kts 53°
2026-05-05 16:30 51.34010 6.88002 2971 ft 255 kts 55°
2026-05-05 16:30 51.34980 6.90426 3758 ft 263 kts 69°
2026-05-05 16:31 51.35257 6.93311 4568 ft 266 kts 97°
2026-05-05 16:31 51.34971 6.96256 5426 ft 270 kts 101°
2026-05-05 16:31 51.34660 6.99234 6310 ft 273 kts 102°
2026-05-05 16:31 51.34345 7.02252 7152 ft 277 kts 101°
2026-05-05 16:32 51.34030 7.05281 7983 ft 281 kts 101°
2026-05-05 16:32 51.33708 7.08432 8842 ft 285 kts 101°
2026-05-05 16:32 51.33390 7.11578 9714 ft 289 kts 101°
2026-05-05 16:32 51.32993 7.14771 10254 ft 302 kts 110°
2026-05-05 16:33 51.31951 7.17786 10491 ft 321 kts 133°
2026-05-05 16:33 51.30275 7.20177 10951 ft 332 kts 142°
2026-05-05 16:33 51.28474 7.22525 11644 ft 336 kts 142°
2026-05-05 16:33 51.26642 7.24889 12383 ft 340 kts 142°
2026-05-05 16:34 51.24791 7.27270 13117 ft 343 kts 142°
2026-05-05 16:34 51.22920 7.29676 13837 ft 347 kts 142°
2026-05-05 16:34 51.21034 7.32107 14479 ft 350 kts 142°
2026-05-05 16:34 51.19128 7.34564 15132 ft 353 kts 142°
2026-05-05 16:35 51.17212 7.37032 15776 ft 356 kts 143°
2026-05-05 16:35 51.15272 7.39530 16424 ft 360 kts 143°
2026-05-05 16:35 51.13317 7.42043 17037 ft 363 kts 143°
2026-05-05 16:35 51.11343 7.44579 17646 ft 366 kts 143°
2026-05-05 16:36 51.09348 7.47139 18230 ft 370 kts 143°
2026-05-05 16:36 51.07330 7.49725 18764 ft 373 kts 143°
2026-05-05 16:36 51.05297 7.52334 19310 ft 376 kts 143°
2026-05-05 16:36 51.03247 7.54960 19842 ft 379 kts 143°
2026-05-05 16:37 51.01185 7.57598 20380 ft 382 kts 143°
2026-05-05 16:37 50.99128 7.60226 20912 ft 385 kts 143°
2026-05-05 16:37 50.97027 7.62907 21442 ft 389 kts 144°
2026-05-05 16:37 50.94909 7.65607 21971 ft 392 kts 144°
2026-05-05 16:38 50.92771 7.68330 22491 ft 395 kts 144°
2026-05-05 16:38 50.90611 7.71072 22984 ft 399 kts 144°
2026-05-05 16:38 50.88438 7.73823 23457 ft 402 kts 144°
2026-05-05 16:38 50.86245 7.76599 23871 ft 405 kts 144°
2026-05-05 16:39 50.84040 7.79390 24283 ft 407 kts 144°
2026-05-05 16:39 50.81717 7.81933 24682 ft 405 kts 156°
2026-05-05 16:39 50.79104 7.83506 25081 ft 403 kts 165°
2026-05-05 16:39 50.76426 7.84839 25474 ft 405 kts 166°
2026-05-05 16:40 50.73725 7.86164 25868 ft 407 kts 166°
2026-05-05 16:40 50.71004 7.87491 26245 ft 409 kts 166°
2026-05-05 16:40 50.68280 7.88822 26624 ft 411 kts 166°
2026-05-05 16:40 50.65543 7.90160 27001 ft 412 kts 166°
2026-05-05 16:41 50.62828 7.91488 27376 ft 414 kts 166°
2026-05-05 16:41 50.60077 7.92836 27738 ft 416 kts 166°
2026-05-05 16:41 50.57296 7.94198 28087 ft 418 kts 166°
2026-05-05 16:41 50.55532 7.95057 28301 ft 419 kts 166°
2026-05-05 16:42 50.52743 7.96416 28643 ft 420 kts 166°
2026-05-05 16:42 50.49942 7.97784 28997 ft 422 kts 166°
2026-05-05 16:42 50.47132 7.99161 29324 ft 423 kts 166°
2026-05-05 16:42 50.44315 8.00541 29660 ft 424 kts 166°
2026-05-05 16:43 50.41500 8.01913 30119 ft 421 kts 166°
2026-05-05 16:43 50.38706 8.03273 30554 ft 418 kts 167°
2026-05-05 16:43 50.35939 8.04619 31003 ft 415 kts 166°
2026-05-05 16:43 50.33221 8.05942 31453 ft 413 kts 166°
2026-05-05 16:44 50.30448 8.07282 31928 ft 410 kts 166°
2026-05-05 16:44 50.27735 8.08591 32403 ft 407 kts 167°
2026-05-05 16:44 50.25073 8.09877 32876 ft 404 kts 166°
2026-05-05 16:44 50.22527 8.11108 33340 ft 401 kts 167°
2026-05-05 16:45 50.19874 8.12384 33839 ft 397 kts 167°
2026-05-05 16:45 50.17231 8.13654 34080 ft 399 kts 167°
2026-05-05 16:45 50.14571 8.14984 34199 ft 405 kts 162°
2026-05-05 16:45 50.11991 8.16860 34325 ft 413 kts 154°
2026-05-05 16:46 50.09506 8.19168 34453 ft 418 kts 153°
2026-05-05 16:46 50.07269 8.21248 34556 ft 421 kts 153°
2026-05-05 16:46 50.04746 8.23582 34677 ft 424 kts 153°
2026-05-05 16:46 50.02200 8.25934 34821 ft 427 kts 153°
2026-05-05 16:47 49.97086 8.30650 34858 ft 426 kts 153°
2026-05-05 16:47 49.92021 8.35320 34851 ft 426 kts 153°
2026-05-05 16:48 49.86935 8.40005 34844 ft 425 kts 153°
2026-05-05 16:48 49.82248 8.45715 34834 ft 432 kts 141°
2026-05-05 16:49 49.77874 8.52107 34827 ft 432 kts 141°
2026-05-05 16:49 49.73347 8.58172 34828 ft 426 kts 151°
2026-05-05 16:50 49.68059 8.61866 34826 ft 416 kts 169°
2026-05-05 16:50 49.62399 8.63514 34822 ft 414 kts 173°
2026-05-05 16:51 49.56712 8.65081 34819 ft 415 kts 173°
2026-05-05 16:51 49.51029 8.66663 34826 ft 416 kts 173°
2026-05-05 16:52 49.45390 8.68733 34818 ft 421 kts 162°
2026-05-05 16:52 49.40035 8.72455 34817 ft 423 kts 159°
2026-05-05 16:53 49.34674 8.76195 34810 ft 423 kts 160°
2026-05-05 16:53 49.29309 8.79893 34811 ft 424 kts 160°
2026-05-05 16:54 49.24481 8.83230 34808 ft 424 kts 161°
2026-05-05 16:54 49.18864 8.85337 34809 ft 416 kts 180°
2026-05-05 16:55 49.13161 8.84598 34809 ft 411 kts 192°
2026-05-05 16:55 49.07516 8.83038 34813 ft 412 kts 192°
2026-05-05 16:56 49.01868 8.81513 34816 ft 412 kts 192°
2026-05-05 16:56 48.96262 8.79989 34825 ft 412 kts 192°
2026-05-05 16:57 48.90616 8.78459 34821 ft 412 kts 192°
2026-05-05 16:57 48.84968 8.76944 34828 ft 412 kts 192°
2026-05-05 16:58 48.79318 8.75435 34830 ft 412 kts 192°
2026-05-05 16:58 48.73670 8.73926 34833 ft 412 kts 192°
2026-05-05 16:59 48.68018 8.72421 34751 ft 413 kts 192°
2026-05-05 16:59 48.65190 8.71665 34503 ft 412 kts 192°
2026-05-05 16:59 48.62356 8.70906 34258 ft 412 kts 192°
2026-05-05 17:00 48.59536 8.70151 34018 ft 412 kts 192°
2026-05-05 17:00 48.56707 8.69397 33764 ft 412 kts 192°
2026-05-05 17:00 48.53884 8.68647 33032 ft 413 kts 192°
2026-05-05 17:00 48.51071 8.67904 32519 ft 407 kts 192°
2026-05-05 17:01 48.48302 8.67175 32012 ft 402 kts 192°
2026-05-05 17:01 48.45558 8.66454 31468 ft 397 kts 192°
2026-05-05 17:01 48.42850 8.65741 30959 ft 393 kts 192°
2026-05-05 17:01 48.40165 8.65032 30449 ft 390 kts 192°
2026-05-05 17:02 48.37542 8.64335 29941 ft 386 kts 192°
2026-05-05 17:02 48.34909 8.63583 29356 ft 384 kts 193°
2026-05-05 17:02 48.32299 8.62792 28824 ft 379 kts 193°
2026-05-05 17:02 48.29728 8.61992 28305 ft 376 kts 193°
2026-05-05 17:03 48.27182 8.61197 27800 ft 372 kts 193°
2026-05-05 17:03 48.24653 8.60419 27304 ft 370 kts 193°
2026-05-05 17:03 48.22136 8.59654 26812 ft 367 kts 193°
2026-05-05 17:03 48.19633 8.58898 26312 ft 366 kts 193°
2026-05-05 17:04 48.17136 8.58144 25850 ft 365 kts 193°
2026-05-05 17:04 48.14652 8.57396 25398 ft 362 kts 193°
2026-05-05 17:04 48.12185 8.56662 24934 ft 360 kts 193°
2026-05-05 17:04 48.09733 8.55938 24489 ft 358 kts 193°
2026-05-05 17:05 48.07327 8.55228 24042 ft 355 kts 193°
2026-05-05 17:05 48.04908 8.54515 23599 ft 353 kts 193°
2026-05-05 17:05 48.02497 8.53803 23105 ft 351 kts 193°
2026-05-05 17:05 48.00102 8.53093 22655 ft 348 kts 193°
2026-05-05 17:06 47.97733 8.52388 22206 ft 345 kts 193°
2026-05-05 17:06 47.95374 8.51799 21761 ft 343 kts 186°
2026-05-05 17:06 47.92987 8.51842 21305 ft 344 kts 175°
2026-05-05 17:06 47.90639 8.52496 20853 ft 343 kts 171°
2026-05-05 17:07 47.88539 8.53162 20432 ft 342 kts 170°
2026-05-05 17:07 47.86226 8.53889 19983 ft 341 kts 170°
2026-05-05 17:07 47.83897 8.54617 19524 ft 340 kts 170°
2026-05-05 17:07 47.81585 8.55339 19074 ft 339 kts 170°
2026-05-05 17:08 47.80058 8.55817 18778 ft 339 kts 169°
2026-05-05 17:08 47.77746 8.56544 18326 ft 338 kts 169°
2026-05-05 17:08 47.75437 8.57268 17743 ft 341 kts 169°
2026-05-05 17:08 47.73125 8.57985 17050 ft 338 kts 169°
2026-05-05 17:09 47.71428 8.58510 16533 ft 335 kts 169°
2026-05-05 17:09 47.69217 8.59567 15827 ft 333 kts 156°
2026-05-05 17:09 47.67235 8.61339 15130 ft 332 kts 143°
2026-05-05 17:09 47.65586 8.63721 14455 ft 333 kts 131°
2026-05-05 17:10 47.64118 8.66430 13786 ft 341 kts 131°
2026-05-05 17:10 47.62615 8.69188 13057 ft 346 kts 131°
2026-05-05 17:10 47.61091 8.71973 12414 ft 348 kts 131°
2026-05-05 17:10 47.59586 8.74726 12155 ft 339 kts 131°
2026-05-05 17:11 47.58180 8.77466 11891 ft 331 kts 122°
2026-05-05 17:11 47.57427 8.80641 11643 ft 328 kts 99°
2026-05-05 17:11 47.57541 8.84002 11389 ft 328 kts 78°
2026-05-05 17:11 47.58502 8.87075 11136 ft 331 kts 54°
2026-05-05 17:12 47.60183 8.89331 10888 ft 333 kts 31°
2026-05-05 17:12 47.62342 8.90542 10640 ft 332 kts
2026-05-05 17:12 47.64640 8.90564 10397 ft 330 kts 348°
2026-05-05 17:12 47.66779 8.89426 10154 ft 326 kts 327°
2026-05-05 17:13 47.68499 8.87307 9914 ft 320 kts 307°
2026-05-05 17:13 47.69581 8.84587 9734 ft 297 kts 287°
2026-05-05 17:13 47.69993 8.81654 9605 ft 287 kts 269°
2026-05-05 17:13 47.69932 8.78699 9477 ft 286 kts 264°
2026-05-05 17:14 47.69843 8.75760 9211 ft 286 kts 265°
2026-05-05 17:14 47.69762 8.72830 8802 ft 283 kts 265°
2026-05-05 17:14 47.69684 8.69908 8394 ft 283 kts 265°
2026-05-05 17:14 47.69608 8.67036 8005 ft 281 kts 265°
2026-05-05 17:15 47.69530 8.64145 7628 ft 279 kts 265°
2026-05-05 17:15 47.69451 8.61286 7257 ft 276 kts 265°
2026-05-05 17:15 47.69371 8.58445 6890 ft 274 kts 265°
2026-05-05 17:15 47.69292 8.55647 6519 ft 265 kts 265°
2026-05-05 17:16 47.69219 8.52985 6160 ft 252 kts 265°
2026-05-05 17:16 47.69146 8.50412 5864 ft 247 kts 265°
2026-05-05 17:16 47.69071 8.47878 5546 ft 244 kts 265°
2026-05-05 17:16 47.68711 8.45457 5250 ft 238 kts 247°
2026-05-05 17:17 47.67866 8.43384 4947 ft 234 kts 230°
2026-05-05 17:17 47.66639 8.41830 4654 ft 232 kts 212°
2026-05-05 17:17 47.65227 8.40700 4335 ft 230 kts 210°
2026-05-05 17:17 47.63823 8.39583 4075 ft 226 kts 210°
2026-05-05 17:18 47.62451 8.38595 4017 ft 213 kts 200°
2026-05-05 17:18 47.61036 8.38265 4022 ft 202 kts 181°
2026-05-05 17:18 47.59668 8.38616 4054 ft 200 kts 163°
2026-05-05 17:18 47.58449 8.39596 3999 ft 202 kts 143°
2026-05-05 17:19 47.57410 8.40986 3810 ft 201 kts 139°
2026-05-05 17:19 47.56390 8.42395 3563 ft 201 kts 139°
2026-05-05 17:19 47.55364 8.43806 3314 ft 201 kts 139°
2026-05-05 17:19 47.54353 8.45195 3042 ft 193 kts 140°
2026-05-05 17:20 47.53495 8.46372 2832 ft 176 kts 139°
2026-05-05 17:20 47.52634 8.47553 2617 ft 164 kts 140°
2026-05-05 17:20 47.51804 8.48692 2409 ft 162 kts 140°
2026-05-05 17:20 47.51007 8.49797 2198 ft 155 kts 140°
2026-05-05 17:21 47.50233 8.50850 2018 ft 149 kts 141°
2026-05-05 17:21 47.49478 8.51864 1814 ft 145 kts 137°
2026-05-05 17:21 47.48750 8.52868 1610 ft 141 kts 139°
2026-05-05 17:22 47.47369 8.54755 1390 ft 108 kts 137°
2026-05-05 17:22 47.46914 8.55375 1391 ft 70 kts 137°
2026-05-05 17:22 47.46621 8.55776 1398 ft 34 kts 136°
2026-05-05 17:22 47.46433 8.55935 1402 ft 30 kts 165°
2026-05-05 17:23 47.46285 8.55987 1403 ft 12 kts 166°
2026-05-05 17:23 47.46210 8.56006 1408 ft 10 kts 175°
2026-05-05 17:23 47.46145 8.56000 1406 ft 9 kts 186°
2026-05-05 17:23 47.46075 8.55986 1407 ft 15 kts 187°
2026-05-05 17:24 47.46053 8.55982 1407 ft 0 kts 185°
2026-05-05 17:24 47.46030 8.55979 1407 ft 12 kts 185°
2026-05-05 17:24 47.45910 8.55939 1407 ft 17 kts 199°
2026-05-05 17:24 47.45849 8.55908 1410 ft 0 kts 198°
2026-05-05 17:25 47.45792 8.55881 1411 ft 12 kts 196°
2026-05-05 17:25 47.45698 8.55869 1409 ft 15 kts 187°
2026-05-05 17:26 47.45599 8.55849 1409 ft 13 kts 187°
2026-05-05 17:26 47.45524 8.55824 1414 ft 11 kts 218°
2026-05-05 17:26 47.45511 8.55726 1409 ft 6 kts 272°
2026-05-05 17:26 47.45478 8.55698 1409 ft 4 kts 190°
2026-05-05 17:27 47.45444 8.55693 1407 ft 4 kts 184°
2026-05-05 17:27 47.45438 8.55692 1407 ft 1 kts 186°
2026-05-05 17:27 47.45433 8.55691 1407 ft 0 kts 186°
2026-05-05 17:31 47.45432 8.55691 1407 ft 0 kts 186°